Tracking 33176 objects as of 13-Feb-2026
HD Live streaming from Space Station
objects crossing your sky now

FLOCK 4H 7

Track FLOCK 4H 7 now!
10-day predictions
FLOCK 4H 7 is classified as:


NORAD ID: 66710
Int'l Code: 2025-276AW
Perigee: 515.3 km
Apogee: 520.6 km
Inclination: 97.4 °
Period: 94.8 minutes
Semi major axis: 6888 km
RCS: Unknown
Launch date: November 28, 2025
Source: United States (US)
Launch site: AIR FORCE WESTERN TEST RANGE (AFWTR)
Your satellite tracking list
Your tracking list is empty




NASA's NSSDC Master Catalog

Two Line Element Set (TLE):
1 66710U 25276AW  26043.77509643  .00006948  00000-0  34150-3 0  9991
2 66710  97.4309 119.4371 0003835 101.7637 258.4028 15.18346966 11532
Source of the keplerian elements: AFSPC